Location: Byszew
(52.1813°N, 19.2693°E)
Time: 21:03:29
(UTC+00:00)

CZ-2C R/B - Pass Details

Date: 03 March 2021
Orbit: 783 x 871 km, 98.2° (Epoch: 16 April)

Event Time Altitude Azimuth Distance (km) Brightness Sun altitude
Rises 17:58:26 0° 15° (NNE) 3,444 5.8 -14.9°
Reaches altitude 10° 18:00:51 10° 16° (NNE) 2,493 5.1 -15.3°
Maximum altitude 18:06:24 80° 104° (ESE) 857 2.6 -16.1°
Drops below altitude 10° 18:11:47 10° 192° (SSW) 2,418 5.1 -16.9°
Sets 18:14:06 0° 193° (SSW) 3,333 5.8 -17.2°
